Location: De Greiden
(52.9496°N, 5.9137°E)
Time: 01:01:39
(UTC+00:00)

Lacrosse 5 - Pass Details

Date: 24 January 2021
Orbit: 715 x 724 km, 57.0° (Epoch: 22 February)

Event Time Altitude Azimuth Distance (km) Brightness Sun altitude
Rises 17:26:12 0° 297° (WNW) 3,124 5.9 -11.8°
Reaches altitude 10° 17:28:44 10° 289° (WNW) 2,201 5.3 -12.2°
Maximum altitude 17:33:19 35° 224° (SW) 1,138 3.5 -12.8°
Drops below altitude 10° 17:37:53 10° 160° (SSE) 2,192 4.3 -13.5°
Sets 17:40:24 0° 151° (SSE) 3,109 5.0 -13.9°
